sat.trackr.live / text

‹ back to catalog

HULIANWANG DIGUI-102

NORAD 66418 · 2025-258G

PAYLOAD ACTIVE UNKNOWN

§ Identity

Operator
Country
PRC
Launch date
2025-11-10
Launch site
WSC
Launch vehicle
Mass (kg)
RCS (m²)

External: N2YO · Heavens-Above · Gunter

§ Orbital elements

Epoch: 2026-05-25T00:48:07.215840Z

Period
108.33 min
Inclination
50.0032°
Eccentricity
0.0000968
Mean motion
13.29319608 rev/d
Perigee alt
1,148.6 km
Apogee alt
1,150.1 km
Semi-major
7,527.5 km
B*
7.7331e-5
RAAN
18.4728°
Arg perigee
53.5445°
Mean anomaly
306.5516°
Rev number
2,665

§ Raw data

HULIANWANG DIGUI-1021 66418U 25258G   26145.03341685 -.00000088  00000+0  77331-4 0  99962 66418  50.0032  18.4728 0000968  53.5445 306.5516 13.29319608 26653

JSON: /api/v1/satellites/66418 · /tle

For live sub-satellite position, see the globe view (requires WebGL).

§ Visibility from observer

Set your observer location to see the next 7 days of passes ≥ 10°. The values pass through the URL so the page stays shareable.

No JS? Fill the form by hand. The geolocation button needs JavaScript.